Bellingham, WA
on Monday, January 14, 2013

Monday
Previous Day Next Day
Daily Summary
 ActualAverageRecord
Temperature
Mean Temperature °F 39°F  
Max Temperature 34°F 45°F 62°F (1968)
Min Temperature 30°F 33°F 10°F (2007)
Degree Days
Heating Degree Days 33 26  
Month to date heating degree days 370  
Cooling Degree Days 0 0  
Month to date cooling degree days 0  
Year to date cooling degree days 0  
Moisture
Dew Point 29°F   
Average Humidity 87    
Maximum Humidity 93    
Minimum Humidity 79    
Precipitation
Precipitation 0.00 in 0.16 in 0.94 in (1996)
Month to date precipitation 2.14  
Year to date precipitation 2.14  
Wind
Wind Speed 1 mph   
Max Wind Speed 5 mph   
Max Gust Speed mph   
Visibility 8 miles   
Events Snow   

Key: T is trace of precipitation, MM is missing value
Source: NWS Daily Summary
Time(PST)TemperatureDew PointHumidity Pressure Visibility Wind DirectionWind SpeedGust SpeedPrecipitationEvents Conditions
12:53 AM 30.9°F 25.0°F 79% 30.51 in 10.0 miles Calm Calm - N/A   Overcast
1:53 AM 30.0°F 26.1°F 85% 30.51 in 10.0 miles Calm Calm - N/A   Overcast
2:53 AM 30.9°F 26.1°F 82% 30.51 in 10.0 miles Calm Calm - N/A   Overcast
3:53 AM 30.9°F 27.0°F 85% 30.51 in 10.0 miles Calm Calm - N/A   Overcast
4:29 AM 30.2°F 26.6°F 86% 30.47 in 10.0 miles Calm Calm - N/A   Overcast
4:53 AM 30.9°F 27.0°F 85% 30.51 in 10.0 miles Calm Calm - N/A   Overcast
5:11 AM 30.2°F 26.6°F 86% 30.47 in 10.0 miles Calm Calm - N/A   Overcast
5:53 AM 30.9°F 27.0°F 85% 30.50 in 10.0 miles Calm Calm - N/A   Overcast
6:06 AM 30.2°F 26.6°F 86% 30.47 in 10.0 miles Calm Calm - N/A   Overcast
6:53 AM 30.9°F 27.0°F 85% 30.51 in 10.0 miles Calm Calm - N/A   Overcast
7:53 AM 33.1°F 28.9°F 85% 30.51 in 10.0 miles Calm Calm - N/A   Overcast
8:53 AM 32.0°F 28.0°F 85% 30.53 in 10.0 miles North 3.5 mph - N/A   Overcast
9:53 AM 33.1°F 28.9°F 85% 30.53 in 9.0 miles NE 4.6 mph - N/A   Overcast
10:53 AM 33.1°F 30.0°F 89% 30.53 in 7.0 miles Calm Calm - N/A   Overcast
11:04 AM 33.8°F 30.2°F 87% 30.50 in 5.0 miles Calm Calm - N/A   Overcast
11:53 AM 33.1°F 30.9°F 92% 30.53 in 4.0 miles Calm Calm - N/A   Overcast
12:53 PM 33.1°F 30.9°F 92% 30.53 in 3.0 miles Calm Calm - 0.00 in Snow Light Snow
1:00 PM 33.8°F 32.0°F 93% 30.49 in 1.5 miles Calm Calm - 0.00 in Snow Light Snow
1:51 PM 33.8°F 32.0°F 93% 30.50 in 3.0 miles Calm Calm - 0.00 in   Overcast
1:53 PM 33.8°F 32.0°F 93% 30.50 in 3.0 miles Calm Calm - N/A   Overcast
2:50 PM 33.8°F 32.0°F 93% 30.51 in 2.0 miles NNE 3.5 mph - 0.00 in Snow Light Snow
2:53 PM 34.0°F 32.0°F 92% 30.54 in 2.0 miles NNE 3.5 mph - 0.00 in Snow Light Snow
3:05 PM 33.8°F 32.0°F 93% 30.51 in 4.0 miles Calm Calm - 0.00 in   Overcast
3:53 PM 33.1°F 30.9°F 92% 30.55 in 9.0 miles North 3.5 mph - 0.00 in   Overcast
4:53 PM 33.1°F 30.0°F 89% 30.55 in 10.0 miles Calm Calm - N/A   Overcast
5:53 PM 33.1°F 30.0°F 89% 30.56 in 10.0 miles Calm Calm - N/A   Overcast
6:53 PM 33.1°F 30.0°F 89% 30.57 in 10.0 miles Calm Calm - N/A   Overcast
7:10 PM 33.8°F 30.2°F 87% 30.54 in 10.0 miles NNE 3.5 mph - N/A   Overcast
7:53 PM 33.1°F 30.0°F 89% 30.58 in 10.0 miles Calm Calm - N/A   Overcast
8:53 PM 33.1°F 28.9°F 85% 30.60 in 10.0 miles Calm Calm - N/A   Overcast
9:18 PM 33.8°F 28.4°F 81% 30.56 in 10.0 miles NNE 3.5 mph - N/A   Overcast
9:53 PM 33.1°F 28.0°F 82% 30.60 in 10.0 miles Calm Calm - N/A   Overcast
10:25 PM 33.8°F 28.4°F 81% 30.56 in 10.0 miles Calm Calm - N/A   Overcast
10:35 PM 33.8°F 28.4°F 81% 30.57 in 10.0 miles Calm Calm - N/A   Overcast
10:48 PM 33.8°F 28.4°F 81% 30.57 in 10.0 miles North 3.5 mph - N/A   Overcast
10:53 PM 33.1°F 28.9°F 85% 30.61 in 10.0 miles North 3.5 mph - N/A   Overcast
11:53 PM 33.1°F 30.0°F 89% 30.61 in 10.0 miles North 3.5 mph - N/A   Overcast
Moon Phase
Jan. 14 Jan. 18 Jan. 26 Feb. 03 Feb. 10
Sunrise:07:58 AM (PST) Moon Rise:09:14 AM (PST)1/14
Sunset:04:40 PM (PST) Moon Set:08:55 PM (PST)1/14

Copyright © 2014 The Weather Underground, Inc.